Home > Weather > Bad Radkersburg > Past weeks

Flag for Austria Weather for the Past 2 Weeks in Bad Radkersburg, Styria, Austria

Now
31 °F

Chilly.


Feels Like: 31 °F
Forecast: 30 / 41 °F
Wind: 1 mph from Northeast

Location: Murska Sobota

Current Time: Feb 11, 2016 at 2:03:15 AM

Latest Report: Feb 11, 2016 at 12:00 AM


Visibility: N/A

Pressure: 29.65 "Hg

Humidity: 96%

Dew point: 30 °F

Location of Bad RadkersburgLocation

Historic Weather in Bad Radkersburg — Graph

°F

Bad Radkersburg Temperature Yesterday

Maximum temperature yesterday: 46 °F (at 5:00 AM)
Minimum temperature yesterday: 32 °F (at 8:00 AM)
Average temperature yesterday: 37 °F

High & Low Weather Summary for the Past Weeks

 TemperatureHumidityPressure
High62 °F (Feb 1, 4:00 PM)100% (Jan 30, 10:00 AM)30.47 "Hg (Jan 30, 10:00 AM)
Low27 °F (Feb 6, 7:00 AM)45% (Feb 4, 3:00 PM)29.21 "Hg (Feb 10, 6:00 AM)
Average44 °F78%30.10 "Hg
* Reported Jan 26 10:00 PM — Feb 10 10:00 PM, Bad Radkersburg, Weather by CustomWeather, © 2016

Note: Actual official high and low records may vary slightly from our data, if they occured in-between our weather recording intervals... More about our weather records

Advertising

Bad Radkersburg Weather History for the Previous 24 Hours

 ConditionsComfort  
Time TempWeatherWind HumidityBarometerVisibility
10:00 PM
Wed, Feb 10
34 °FChilly.2 mph91%29.61 "HgN/A
9:00 PM37 °FChilly.2 mph87%29.58 "HgN/A
8:00 PM37 °FChilly.3 mph91%29.56 "HgN/A
7:00 PM36 °FOvercast.2 mph95%29.53 "Hg6 mi
6:00 PM37 °FChilly.2 mph95%29.50 "HgN/A
5:00 PM38 °FChilly.1 mph91%29.47 "HgN/A
4:00 PM39 °FChilly.3 mph89%29.44 "HgN/A
3:00 PM38 °FChilly.1 mph96%29.41 "HgN/A
2:00 PM38 °FOvercast.2 mph93%29.38 "Hg31 mi
1:00 PM37 °FOvercast.2 mph94%29.35 "Hg31 mi
12:00 PM36 °FChilly.2 mph97%29.38 "HgN/A
11:00 AM34 °FChilly.2 mph98%29.38 "HgN/A
10:00 AM33 °FChilly.5 mph98%29.38 "HgN/A
9:00 AM33 °FChilly.5 mph99%29.35 "HgN/A
8:00 AM32 °FSnow. Dense fog.1 mph98%29.32 "Hg1 mi
7:00 AM35 °FDrizzle. Overcast.6 mph95%29.29 "Hg1 mi
6:00 AM46 °FCool.3 mph96%29.21 "HgN/A
5:00 AM46 °FCool.3 mph94%29.26 "HgN/A
Weather by CustomWeather, © 2016

See weather overviewHow to use our weather pages